Orbital Elements at Epoch 2459200.5 (2020-Dec-17.0) TDB
Reference: JPL 26 (heliocentric ecliptic J2000)
Element | Value | Uncertainty (1-sigma) | Units |
e | .07318048893382868 | 1.2684e-08 | |
a | 2.968591941670928 | 1.5811e-08 | au |
q | 2.751348931934426 | 4.4968e-08 | au |
i | 10.45559014951093 | 3.7995e-07 | deg |
node | 89.35380262521552 | 2.5345e-06 | deg |
peri | 313.0527451502458 | 1.7704e-05 | deg |
M | 184.0558448352273 | 2.0641e-05 | deg |
tp | 2460113.554132925434 (2023-Jun-18.05413293) | 0.00011018 | TDB |
period | 1868.203507785339 5.11 | 1.4925e-05 4.086e-08 | d yr |
n | .1926984926962063 | 1.5395e-09 | deg/d |
Q | 3.18583495140743 | 1.6968e-08 | au |
|
| | Orbit Determination Parameters
Additional Information
|